This demonstration page uses our WeatherBlox Daily Observations layout. Learn more.

Left ArrowRight Arrow

Hourly Observations for October 23, 2018

Temp ( °F °C ) Dew Point ( °F °C ) Humidity (%) Winds ( mph kmh ) Pressure ( in mb ) Visibility ( mi km ) Precip ( " mm )
12:51 am 00:51 Clear 63 17.2 59 15 87 87 SE 8 13 29.88 1012 10 16 0.00 0.00
1:51 am 01:51 Clear 65 18.3 59 15 81 81 ESE 10 17 29.87 1012 10 16 0.00 0.00
2:51 am 02:51 Clear 65 18.3 57 13.9 76 76 ESE 9 15 29.87 1011 10 16 0.00 0.00
3:51 am 03:51 Clear 65 18.3 57 13.9 76 76 ESE 9 15 29.86 1011 10 16 0.00 0.00
4:51 am 04:51 Partly Cloudy 65 18.3 57 13.9 76 76 ESE 9 15 29.87 1012 10 16 0.00 0.00
5:51 am 05:51 Clear 63 17.2 57 13.9 81 81 ESE 8 13 29.88 1012 10 16 0.00 0.00
6:51 am 06:51 Sunny 63 17.2 57 13.9 81 81 ESE 5 7 29.90 1013 10 16 0.00 0.00
7:51 am 07:51 Mostly Cloudy 64 17.8 58 14.4 81 81 E 7 11 29.93 1013 10 16 0.00 0.00
8:51 am 08:51 Mostly Cloudy 65 18.3 57 13.9 76 76 S 18 30 29.95 1014 10 16 0.00 0.00
9:51 am 09:51 Mostly Cloudy 65 18.3 52 11.1 63 63 SE 17 28 29.92 1013 10 16 0.00 0.00
10:51 am 10:51 Sunny 65 18.3 53 11.7 66 66 ESE 13 20 29.93 1014 10 16 0.00 0.00
11:51 am 11:51 Sunny 70 21.1 51 10.6 51 51 ESE 10 17 29.89 1012 10 16 0.00 0.00
12:51 pm 12:51 Sunny 71 21.7 51 10.6 49 49 E 21 33 29.87 1011 10 16 0.00 0.00
1:51 pm 13:51 Mostly Cloudy 72 22.2 50 10 46 46 ENE 14 22 29.86 1011 10 16 0.00 0.00
2:51 pm 14:51 Mostly Cloudy 71 21.7 49 9.4 46 46 E 13 20 29.86 1011 10 16 0.00 0.00
3:51 pm 15:51 Partly Cloudy 69 20.6 55 12.8 61 61 SSE 10 17 29.87 1011 10 16 0.00 0.00
4:51 pm 16:51 Cloudy 67 19.4 56 13.3 68 68 SE 9 15 29.88 1012 10 16 0.00 0.00
5:51 pm 17:51 Mostly Clear 65 18.3 56 13.3 73 73 ESE 12 19 29.87 1012 10 16 0.00 0.00
6:51 pm 18:51 Mostly Cloudy 63 17.2 53 11.7 70 70 E 15 24 29.85 1011 10 16 0.00 0.00
7:51 pm 19:51 Clear 63 17.2 52 11.1 68 68 ESE 12 19 29.89 1012 10 16 0.00 0.00
8:51 pm 20:51 Mostly Clear 61 16.1 53 11.7 75 75 E 7 11 29.90 1013 10 16 0.00 0.00
9:51 pm 21:51 Clear 60 15.6 53 11.7 78 78 S 6 9 29.89 1012 10 16 0.00 0.00
10:51 pm 22:51 Clear 59 15 54 12.2 83 83 SE 6 9 29.88 1012 10 16 0.00 0.00
11:51 pm 23:51 Clear 58 14.4 54 12.2 87 87 E 3 6 29.86 1011 10 16 0.00 0.00

Powered by AerisWeather